Aérodrome :
LOGIN :

S'inscrire | Disclaimer

   EN    FR    IT 

 










Légende :    VFR   VFR Marginal   IFR   IFR Intensif   IFR Très Intensif
Visi : 
Plafond : 
>= 8 km
>= 3000ft
5 à 8 km
1000 à 3000 ft
1500m à 5 km
500 à 1000 ft
800 à 1500m
200 à 500 ft
< 800m
< 200 ft
Symboles :   Orages  Brouillard  Fortes neiges  Fortes précipitations  Vent > 20 kt
SIGMETs :   Divers  Orages  Givrage  Turbulence  Onde Orograph.  Cendres Volcan.







- Altitude de l'aérodrome : 1302 ft
- Code IATA : GNB
- Voir les cartes d'approche


LFLS - Grenoble / St. Geoirs

DERNIER METAR :
  • 172200Z AUTO 11005KT CAVOK 16/09 Q1014

METARs EXPIRÉS :
  • 172130Z AUTO 11004KT CAVOK 16/10 Q1014
  • 172100Z AUTO 11004KT CAVOK 18/10 Q1014
  • 172030Z AUTO 10004KT 040V120 CAVOK 18/10 Q1014
  • 172000Z AUTO 10003KT CAVOK 20/10 Q1013
  • 171930Z AUTO 04004KT CAVOK 22/10 Q1013

TAF TAF LFLS
Valide du 17 à 15h jusqu'au 18 à 15h UTC


171400Z 1715/1815 33007KT CAVOK
TEMPO 1720/1808 09004KT
ATIS : +33 4 76 65 55 89
Pas de NOTAMs connus pour ce terrain.



MET'MAP, la Météo Aéronautique d'un coup d'oeil ! - Copyright ORBIFLY Décembre 2007 - Disclaimer

ORBIFLY MET'MAP TEAM :

Programmation & Développement : Alexandra Zaïnal
Conception & Développement : Baudouin d'Aumeries
Co-Programmation & Développement : Marc-Olivier Méhu
Soutien technique & logistique : Manuel Goepfert

Contact : metmap@orbifly.com




SOURCES & CREDITS :

   NOAA